QPF
0.00 0.01 0.01 0.01 0.01 0.02 0.02 0.03 0.03 0.03 0.04 0.06 0.07 0.07 0.07 0.06 0.03 0.03 0.03 0.03 0.03 0.04 0.07 0.06 0.10 0.09 0.11 0.09 0.08 0.11 0.10 0.09 0.07 0.10 0.09 0.06 0.05 0.06 0.07 0.06 0.06 0.05 0.05
0.01 0.01 0.01 0.01 0.01 0.01 0.01 0.02 0.03 0.04 0.03 0.05 0.07 0.08 0.05 0.04 0.04 0.03 0.04 0.03 0.02 0.02 0.04 0.07 0.07 0.08 0.09 0.08 0.08 0.10 0.09 0.09 0.09 0.12 0.15 0.15 0.15 0.11 0.07 0.09 0.09 0.06 0.06
0.00 0.01 0.01 0.00 0.00 0.01 0.01 0.02 0.03 0.04 0.03 0.05 0.05 0.06 0.05 0.05 0.08 0.09 0.09 0.06 0.04 0.03 0.03 0.04 0.05 0.08 0.08 0.08 0.09 0.09 0.11 0.13 0.12 0.12 0.15 0.21 0.22 0.18 0.12 0.10 0.10 0.08 0.08
0.00 0.01 0.01 0.01 0.02 0.01 0.01 0.01 0.03 0.05 0.05 0.05 0.06 0.07 0.08 0.08 0.11 0.12 0.11 0.07 0.06 0.04 0.04 0.06 0.08 0.08 0.08 0.09 0.08 0.11 0.13 0.13 0.13 0.13 0.12 0.16 0.19 0.18 0.21 0.17 0.10 0.08 0.10
0.00 0.01 0.00 0.00 0.01 0.01 0.01 0.01 0.02 0.04 0.04 0.05 0.05 0.05 0.08 0.09 0.09 0.10 0.11 0.10 0.09 0.08 0.06 0.08 0.11 0.11 0.09 0.10 0.10 0.10 0.10 0.11 0.12 0.14 0.13 0.16 0.16 0.14 0.18 0.18 0.15 0.12 0.09
0.00 0.00 0.00 0.00 0.00 0.00 0.01 0.01 0.01 0.02 0.02 0.02 0.04 0.06 0.07 0.09 0.11 0.10 0.10 0.10 0.10 0.10 0.10 0.14 0.19 0.14 0.12 0.11 0.12 0.09 0.09 0.09 0.11 0.12 0.11 0.12 0.14 0.15 0.17 0.17 0.15 0.14 0.11
0.00 0.00 0.00 0.00 0.00 0.00 0.01 0.01 0.01 0.02 0.02 0.02 0.03 0.04 0.06 0.07 0.08 0.07 0.07 0.08 0.09 0.10 0.09 0.11 0.14 0.12 0.12 0.10 0.11 0.10 0.09 0.09 0.10 0.09 0.08 0.09 0.08 0.10 0.12 0.12 0.11 0.10 0.09
0.00 0.00 0.00 0.00 0.00 0.00 0.01 0.01 0.01 0.02 0.03 0.04 0.05 0.04 0.04 0.05 0.06 0.08 0.07 0.08 0.07 0.08 0.10 0.12 0.12 0.11 0.11 0.10 0.11 0.09 0.08 0.07 0.06 0.06 0.10 0.09 0.05 0.07 0.09 0.10 0.12 0.12 0.09
0.00 0.00 0.00 0.00 0.01 0.01 0.01 0.00 0.01 0.02 0.02 0.04 0.05 0.04 0.04 0.06 0.07 0.08 0.06 0.06 0.08 0.08 0.11 0.12 0.12 0.11 0.12 0.11 0.11 0.10 0.07 0.07 0.06 0.06 0.09 0.07 0.06 0.06 0.06 0.08 0.12 0.14 0.13
0.00 0.00 0.00 0.00 0.01 0.01 0.01 0.01 0.01 0.01 0.01 0.02 0.04 0.04 0.05 0.05 0.06 0.08 0.08 0.08 0.09 0.08 0.09 0.09 0.09 0.11 0.12 0.12 0.12 0.10 0.08 0.09 0.09 0.08 0.10 0.08 0.06 0.06 0.06 0.08 0.11 0.12 0.14
0.00 0.00 0.00 0.00 0.00 0.01 0.01 0.01 0.01 0.01 0.01 0.01 0.02 0.03 0.03 0.04 0.04 0.05 0.04 0.06 0.07 0.07 0.08 0.09 0.09 0.10 0.11 0.13 0.14 0.11 0.09 0.09 0.10 0.08 0.08 0.06 0.07 0.10 0.10 0.11 0.11 0.12 0.15
0.00 0.00 0.00 0.00 0.00 0.00 0.01 0.01 0.01 0.01 0.01 0.01 0.02 0.03 0.03 0.03 0.04 0.05 0.05 0.05 0.06 0.06 0.06 0.06 0.08 0.09 0.09 0.11 0.11 0.11 0.11 0.11 0.10 0.09 0.10 0.06 0.08 0.10 0.10 0.11 0.10 0.10 0.12
0.00 0.01 0.01 0.01 0.00 0.01 0.01 0.01 0.02 0.03 0.03 0.03 0.04 0.03 0.02 0.02 0.03 0.05 0.07 0.08 0.08 0.07 0.05 0.05 0.07 0.08 0.09 0.10 0.09 0.08 0.09 0.10 0.11 0.10 0.08 0.06 0.08 0.08 0.07 0.09 0.09 0.09 0.10
0.00 0.01 0.01 0.00 0.00 0.01 0.01 0.02 0.03 0.05 0.06 0.07 0.06 0.04 0.03 0.03 0.04 0.07 0.08 0.09 0.09 0.08 0.08 0.07 0.08 0.07 0.08 0.09 0.08 0.07 0.08 0.10 0.10 0.09 0.09 0.07 0.07 0.07 0.08 0.08 0.06 0.07 0.08
0.00 0.00 0.00 0.00 0.01 0.01 0.02 0.02 0.03 0.05 0.06 0.09 0.11 0.09 0.06 0.06 0.06 0.07 0.07 0.06 0.06 0.07 0.09 0.09 0.10 0.10 0.09 0.07 0.07 0.08 0.07 0.09 0.09 0.09 0.08 0.06 0.06 0.07 0.06 0.04 0.05 0.06 0.07
0.00 0.00 0.00 0.01 0.01 0.01 0.01 0.01 0.02 0.04 0.05 0.06 0.09 0.10 0.07 0.06 0.05 0.05 0.06 0.06 0.07 0.07 0.07 0.09 0.11 0.08 0.05 0.05 0.05 0.05 0.06 0.05 0.06 0.07 0.06 0.05 0.05 0.05 0.04 0.02 0.03 0.06 0.07
0.00 0.00 0.01 0.01 0.01 0.01 0.01 0.01 0.01 0.02 0.03 0.04 0.06 0.07 0.06 0.05 0.06 0.05 0.04 0.05 0.05 0.05 0.05 0.06 0.05 0.05 0.04 0.04 0.02 0.02 0.04 0.05 0.05 0.06 0.06 0.04 0.03 0.05 0.04 0.03 0.03 0.04 0.04
0.00 0.01 0.01 0.01 0.01 0.02 0.02 0.01 0.01 0.01 0.03 0.03 0.04 0.06 0.06 0.05 0.06 0.06 0.05 0.05 0.05 0.05 0.05 0.05 0.05 0.05 0.04 0.05 0.03 0.02 0.03 0.05 0.05 0.05 0.04 0.04 0.04 0.04 0.05 0.06 0.06 0.05 0.04
0.00 0.00 0.01 0.01 0.01 0.02 0.02 0.01 0.01 0.03 0.04 0.05 0.06 0.06 0.05 0.06 0.07 0.06 0.05 0.05 0.06 0.07 0.07 0.06 0.05 0.04 0.03 0.03 0.03 0.02 0.04 0.04 0.04 0.05 0.03 0.03 0.03 0.04 0.03 0.05 0.06 0.05 0.04
0.00 0.00 0.00 0.01 0.02 0.02 0.02 0.02 0.01 0.02 0.03 0.05 0.06 0.05 0.05 0.06 0.06 0.06 0.06 0.07 0.07 0.06 0.06 0.06 0.04 0.03 0.03 0.03 0.02 0.02 0.03 0.04 0.05 0.05 0.04 0.03 0.03 0.03 0.02 0.04 0.05 0.04 0.03
0.01 0.00 0.00 0.01 0.04 0.06 0.04 0.03 0.03 0.04 0.03 0.05 0.06 0.05 0.03 0.05 0.05 0.05 0.06 0.07 0.08 0.08 0.07 0.07 0.06 0.04 0.03 0.03 0.02 0.01 0.02 0.04 0.06 0.07 0.06 0.04 0.04 0.02 0.02 0.02 0.02 0.02 0.02
0.01 0.00 0.00 0.01 0.03 0.05 0.04 0.03 0.03 0.05 0.06 0.05 0.04 0.03 0.03 0.02 0.02 0.03 0.05 0.07 0.09 0.10 0.07 0.05 0.05 0.04 0.03 0.02 0.02 0.01 0.01 0.02 0.04 0.05 0.04 0.02 0.02 0.01 0.01 0.01 0.01 0.01 0.02
0.01 0.01 0.01 0.02 0.02 0.02 0.02 0.03 0.03 0.03 0.05 0.04 0.04 0.03 0.02 0.03 0.03 0.02 0.03 0.03 0.04 0.05 0.06 0.06 0.06 0.06 0.04 0.04 0.03 0.01 0.01 0.01 0.01 0.02 0.02 0.01 0.00 0.00 0.01 0.01 0.01 0.01 0.02
0.03 0.03 0.04 0.03 0.02 0.02 0.03 0.04 0.05 0.05 0.05 0.04 0.04 0.03 0.03 0.03 0.04 0.04 0.04 0.05 0.04 0.04 0.05 0.05 0.05 0.05 0.05 0.05 0.04 0.03 0.01 0.01 0.01 0.01 0.01 0.01 0.01 0.01 0.01 0.01 0.01 0.01 0.02
0.02 0.03 0.03 0.03 0.03 0.03 0.03 0.03 0.04 0.05 0.05 0.05 0.05 0.04 0.04 0.04 0.05 0.05 0.05 0.05 0.04 0.04 0.04 0.04 0.05 0.06 0.07 0.06 0.04 0.03 0.02 0.02 0.01 0.01 0.01 0.01 0.01 0.01 0.01 0.01 0.01 0.01 0.01
0.02 0.02 0.02 0.02 0.02 0.03 0.03 0.03 0.03 0.05 0.08 0.11 0.12 0.10 0.06 0.05 0.05 0.05 0.07 0.09 0.07 0.05 0.04 0.03 0.03 0.03 0.05 0.05 0.05 0.04 0.03 0.02 0.02 0.01 0.01 0.01 0.01 0.01 0.01 0.00 0.00 0.00 0.00
MSLP
1014.59 1014.42 1014.30 1014.25 1014.27 1014.36 1014.51 1014.73 1015.00 1015.31 1015.66 1016.04 1016.43 1016.80 1017.13 1017.41 1017.60 1017.70 1017.72 1017.66 1017.54 1017.40 1017.25 1017.13 1017.04 1016.96 1016.87 1016.76 1016.60 1016.37 1016.07 1015.72 1015.35 1015.01 1014.73 1014.57 1014.54 1014.65 1014.89 1015.21 1015.59 1015.99 1016.36
1015.80 1015.67 1015.57 1015.50 1015.45 1015.44 1015.48 1015.58 1015.74 1015.98 1016.29 1016.66 1017.06 1017.46 1017.81 1018.09 1018.27 1018.34 1018.30 1018.19 1018.03 1017.86 1017.72 1017.61 1017.54 1017.49 1017.43 1017.32 1017.13 1016.86 1016.50 1016.09 1015.67 1015.30 1015.04 1014.92 1014.97 1015.19 1015.54 1015.98 1016.46 1016.93 1017.34
1016.99 1016.96 1016.93 1016.88 1016.81 1016.74 1016.67 1016.64 1016.68 1016.80 1017.02 1017.33 1017.69 1018.08 1018.43 1018.70 1018.85 1018.90 1018.83 1018.68 1018.49 1018.31 1018.16 1018.07 1018.03 1018.00 1017.96 1017.85 1017.66 1017.36 1016.97 1016.53 1016.10 1015.74 1015.52 1015.48 1015.62 1015.95 1016.42 1016.98 1017.56 1018.10 1018.55
1017.97 1018.07 1018.16 1018.19 1018.16 1018.06 1017.92 1017.78 1017.69 1017.68 1017.79 1018.00 1018.30 1018.63 1018.95 1019.21 1019.35 1019.38 1019.29 1019.13 1018.93 1018.74 1018.60 1018.52 1018.50 1018.49 1018.46 1018.37 1018.18 1017.89 1017.50 1017.07 1016.66 1016.35 1016.18 1016.21 1016.45 1016.87 1017.44 1018.09 1018.74 1019.34 1019.82
1018.59 1018.86 1019.10 1019.27 1019.32 1019.25 1019.09 1018.88 1018.68 1018.55 1018.54 1018.65 1018.86 1019.13 1019.41 1019.64 1019.78 1019.80 1019.72 1019.56 1019.36 1019.18 1019.05 1018.98 1018.97 1018.98 1018.97 1018.89 1018.72 1018.45 1018.09 1017.70 1017.34 1017.08 1016.97 1017.07 1017.37 1017.85 1018.48 1019.17 1019.86 1020.47 1020.96
1018.83 1019.28 1019.71 1020.05 1020.23 1020.23 1020.09 1019.85 1019.58 1019.36 1019.24 1019.25 1019.37 1019.58 1019.83 1020.04 1020.18 1020.21 1020.14 1020.00 1019.82 1019.65 1019.53 1019.47 1019.46 1019.48 1019.48 1019.43 1019.29 1019.06 1018.75 1018.41 1018.11 1017.90 1017.84 1017.97 1018.29 1018.79 1019.41 1020.09 1020.76 1021.36 1021.83
1018.79 1019.40 1020.02 1020.53 1020.86 1020.97 1020.89 1020.65 1020.36 1020.07 1019.88 1019.81 1019.87 1020.02 1020.23 1020.43 1020.58 1020.63 1020.59 1020.48 1020.32 1020.17 1020.05 1020.00 1019.99 1020.01 1020.03 1020.00 1019.90 1019.71 1019.46 1019.18 1018.93 1018.75 1018.71 1018.84 1019.14 1019.59 1020.16 1020.78 1021.38 1021.92 1022.35
1018.60 1019.35 1020.13 1020.79 1021.27 1021.50 1021.49 1021.30 1021.01 1020.70 1020.47 1020.35 1020.36 1020.48 1020.66 1020.86 1021.02 1021.10 1021.09 1021.01 1020.88 1020.74 1020.64 1020.58 1020.57 1020.60 1020.62 1020.62 1020.55 1020.41 1020.21 1019.98 1019.77 1019.61 1019.57 1019.66 1019.89 1020.25 1020.72 1021.22 1021.73 1022.19 1022.56
1018.42 1019.28 1020.16 1020.95 1021.53 1021.86 1021.94 1021.81 1021.55 1021.26 1021.02 1020.88 1020.87 1020.97 1021.15 1021.35 1021.52 1021.62 1021.65 1021.59 1021.49 1021.38 1021.28 1021.23 1021.22 1021.24 1021.28 1021.29 1021.25 1021.15 1021.00 1020.81 1020.62 1020.46 1020.39 1020.42 1020.56 1020.80 1021.13 1021.51 1021.89 1022.25 1022.56
1018.39 1019.29 1020.23 1021.08 1021.73 1022.13 1022.28 1022.21 1022.01 1021.76 1021.54 1021.41 1021.41 1021.51 1021.69 1021.90 1022.08 1022.21 1022.26 1022.24 1022.16 1022.07 1021.98 1021.93 1021.93 1021.95 1021.99 1022.02 1022.01 1021.94 1021.83 1021.66 1021.49 1021.32 1021.21 1021.16 1021.20 1021.32 1021.51 1021.76 1022.02 1022.29 1022.53
1018.53 1019.45 1020.38 1021.23 1021.90 1022.33 1022.53 1022.52 1022.38 1022.19 1022.03 1021.95 1021.97 1022.09 1022.28 1022.50 1022.69 1022.84 1022.91 1022.91 1022.87 1022.80 1022.73 1022.69 1022.69 1022.73 1022.77 1022.82 1022.83 1022.79 1022.70 1022.56 1022.39 1022.21 1022.05 1021.94 1021.89 1021.90 1021.98 1022.11 1022.28 1022.46 1022.64
1018.83 1019.71 1020.60 1021.40 1022.04 1022.47 1022.69 1022.74 1022.67 1022.57 1022.48 1022.46 1022.53 1022.68 1022.89 1023.12 1023.33 1023.49 1023.58 1023.60 1023.58 1023.54 1023.49 1023.48 1023.49 1023.54 1023.60 1023.66 1023.69 1023.67 1023.61 1023.49 1023.33 1023.15 1022.97 1022.82 1022.70 1022.64 1022.63 1022.67 1022.76 1022.88 1023.02
1019.17 1020.00 1020.82 1021.54 1022.12 1022.53 1022.77 1022.87 1022.88 1022.86 1022.87 1022.93 1023.07 1023.26 1023.50 1023.74 1023.96 1024.12 1024.23 1024.27 1024.27 1024.26 1024.24 1024.25 1024.29 1024.36 1024.44 1024.51 1024.56 1024.57 1024.53 1024.43 1024.30 1024.13 1023.95 1023.78 1023.64 1023.53 1023.47 1023.47 1023.50 1023.58 1023.69
1019.47 1020.24 1020.97 1021.61 1022.12 1022.50 1022.75 1022.90 1023.00 1023.08 1023.19 1023.35 1023.56 1023.80 1024.07 1024.32 1024.54 1024.71 1024.83 1024.89 1024.92 1024.93 1024.95 1024.99 1025.05 1025.14 1025.24 1025.33 1025.40 1025.43 1025.42 1025.36 1025.25 1025.11 1024.96 1024.81 1024.67 1024.56 1024.48 1024.45 1024.46 1024.51 1024.59
1019.64 1020.36 1021.01 1021.57 1022.02 1022.37 1022.64 1022.85 1023.04 1023.23 1023.45 1023.70 1023.98 1024.28 1024.57 1024.84 1025.06 1025.23 1025.35 1025.43 1025.48 1025.52 1025.57 1025.64 1025.73 1025.84 1025.96 1026.06 1026.15 1026.21 1026.22 1026.19 1026.13 1026.04 1025.93 1025.82 1025.71 1025.62 1025.56 1025.53 1025.52 1025.55 1025.59
1019.66 1020.35 1020.94 1021.43 1021.84 1022.18 1022.48 1022.75 1023.03 1023.33 1023.65 1023.99 1024.34 1024.68 1025.00 1025.27 1025.49 1025.66 1025.78 1025.87 1025.94 1026.01 1026.09 1026.18 1026.29 1026.42 1026.54 1026.66 1026.76 1026.84 1026.88 1026.89 1026.88 1026.84 1026.79 1026.73 1026.68 1026.63 1026.58 1026.56 1026.55 1026.55 1026.56
1019.55 1020.22 1020.78 1021.24 1021.63 1021.98 1022.32 1022.66 1023.02 1023.41 1023.82 1024.24 1024.64 1025.01 1025.34 1025.61 1025.83 1025.99 1026.11 1026.21 1026.29 1026.38 1026.48 1026.59 1026.72 1026.85 1026.98 1027.11 1027.21 1027.30 1027.36 1027.41 1027.45 1027.47 1027.48 1027.48 1027.48 1027.47 1027.46 1027.44 1027.41 1027.39 1027.36
1019.37 1020.04 1020.59 1021.05 1021.45 1021.82 1022.21 1022.61 1023.05 1023.51 1023.99 1024.45 1024.89 1025.27 1025.60 1025.86 1026.07 1026.22 1026.34 1026.44 1026.54 1026.64 1026.76 1026.88 1027.02 1027.15 1027.28 1027.40 1027.50 1027.60 1027.68 1027.76 1027.83 1027.91 1027.97 1028.03 1028.08 1028.10 1028.11 1028.09 1028.05 1027.99 1027.92
1019.19 1019.88 1020.44 1020.91 1021.33 1021.75 1022.18 1022.64 1023.13 1023.64 1024.15 1024.64 1025.08 1025.47 1025.78 1026.02 1026.21 1026.35 1026.47 1026.58 1026.69 1026.81 1026.94 1027.08 1027.21 1027.35 1027.47 1027.58 1027.68 1027.78 1027.87 1027.97 1028.07 1028.18 1028.29 1028.39 1028.47 1028.52 1028.54 1028.51 1028.45 1028.36 1028.24
1019.06 1019.76 1020.35 1020.85 1021.31 1021.76 1022.24 1022.74 1023.26 1023.80 1024.32 1024.81 1025.23 1025.59 1025.88 1026.10 1026.27 1026.41 1026.53 1026.64 1026.77 1026.91 1027.06 1027.21 1027.36 1027.49 1027.61 1027.72 1027.81 1027.90 1028.00 1028.11 1028.23 1028.36 1028.49 1028.61 1028.71 1028.77 1028.78 1028.74 1028.65 1028.52 1028.36
1018.99 1019.71 1020.32 1020.85 1021.35 1021.84 1022.35 1022.88 1023.42 1023.96 1024.47 1024.94 1025.33 1025.66 1025.91 1026.11 1026.26 1026.39 1026.52 1026.66 1026.81 1026.97 1027.15 1027.33 1027.49 1027.63 1027.75 1027.86 1027.95 1028.03 1028.13 1028.23 1028.36 1028.49 1028.62 1028.74 1028.83 1028.88 1028.88 1028.82 1028.71 1028.55 1028.36
1018.96 1019.69 1020.32 1020.88 1021.41 1021.94 1022.48 1023.03 1023.57 1024.10 1024.59 1025.02 1025.37 1025.66 1025.88 1026.05 1026.19 1026.32 1026.46 1026.62 1026.81 1027.01 1027.22 1027.43 1027.62 1027.79 1027.93 1028.04 1028.13 1028.21 1028.30 1028.39 1028.50 1028.61 1028.72 1028.82 1028.89 1028.91 1028.89 1028.80 1028.67 1028.50 1028.29
1018.95 1019.67 1020.30 1020.89 1021.45 1022.01 1022.57 1023.13 1023.67 1024.19 1024.64 1025.03 1025.35 1025.60 1025.78 1025.93 1026.06 1026.20 1026.36 1026.55 1026.77 1027.02 1027.28 1027.53 1027.76 1027.96 1028.12 1028.25 1028.35 1028.43 1028.50 1028.57 1028.65 1028.73 1028.80 1028.86 1028.88 1028.87 1028.81 1028.71 1028.56 1028.38 1028.18
1018.91 1019.60 1020.23 1020.83 1021.41 1022.00 1022.58 1023.16 1023.70 1024.20 1024.63 1024.99 1025.27 1025.48 1025.64 1025.77 1025.89 1026.03 1026.21 1026.43 1026.69 1026.98 1027.28 1027.58 1027.86 1028.10 1028.30 1028.45 1028.56 1028.64 1028.70 1028.74 1028.78 1028.80 1028.82 1028.82 1028.80 1028.74 1028.65 1028.53 1028.37 1028.20 1028.01
1018.82 1019.47 1020.09 1020.69 1021.29 1021.90 1022.51 1023.10 1023.65 1024.14 1024.56 1024.89 1025.15 1025.33 1025.46 1025.57 1025.68 1025.82 1026.01 1026.25 1026.54 1026.86 1027.21 1027.55 1027.87 1028.16 1028.39 1028.57 1028.70 1028.78 1028.82 1028.83 1028.82 1028.79 1028.74 1028.68 1028.60 1028.50 1028.38 1028.24 1028.09 1027.93 1027.78
1018.69 1019.29 1019.87 1020.47 1021.09 1021.72 1022.35 1022.96 1023.52 1024.02 1024.43 1024.75 1024.98 1025.14 1025.25 1025.34 1025.44 1025.57 1025.75 1025.99 1026.29 1026.64 1027.01 1027.39 1027.75 1028.07 1028.33 1028.54 1028.68 1028.76 1028.78 1028.76 1028.70 1028.62 1028.51 1028.39 1028.26 1028.12 1027.97 1027.83 1027.69 1027.57 1027.46
Thickness
5825 5824 5821 5818 5814 5809 5805 5801 5798 5795 5793 5789 5785 5782 5781 5781 5781 5779 5777 5774 5772 5770 5768 5767 5765 5763 5761 5760 5759 5757 5755 5754 5756 5752 5750 5754 5758 5758 5757 5757 5756 5755 5753
5824 5823 5821 5818 5814 5809 5805 5802 5798 5796 5793 5791 5788 5786 5784 5782 5782 5781 5778 5776 5773 5771 5770 5766 5764 5763 5761 5760 5759 5757 5754 5754 5755 5750 5744 5741 5745 5751 5757 5756 5754 5754 5753
5825 5822 5820 5818 5816 5811 5807 5804 5800 5797 5794 5792 5789 5787 5784 5782 5780 5779 5778 5777 5774 5772 5769 5768 5765 5763 5762 5759 5758 5757 5754 5750 5754 5754 5746 5738 5735 5741 5749 5752 5752 5752 5751
5832 5827 5823 5819 5817 5814 5811 5807 5802 5798 5795 5793 5789 5784 5779 5776 5778 5778 5778 5777 5776 5773 5771 5768 5766 5763 5762 5760 5759 5759 5756 5753 5750 5752 5753 5750 5747 5739 5737 5744 5749 5750 5748
5837 5831 5828 5824 5821 5819 5814 5809 5803 5799 5796 5793 5790 5785 5782 5780 5780 5780 5778 5776 5775 5773 5771 5768 5765 5763 5762 5761 5759 5758 5757 5755 5752 5751 5751 5751 5750 5748 5739 5735 5740 5743 5746
5841 5837 5833 5829 5824 5822 5818 5812 5804 5800 5797 5794 5790 5786 5782 5780 5778 5777 5775 5774 5773 5772 5770 5768 5765 5763 5762 5761 5759 5757 5756 5755 5753 5752 5750 5748 5745 5744 5741 5736 5735 5735 5740
5843 5838 5833 5828 5824 5821 5818 5813 5806 5800 5798 5794 5790 5788 5784 5781 5778 5777 5775 5773 5771 5770 5769 5769 5766 5764 5763 5761 5759 5756 5755 5754 5752 5751 5750 5750 5749 5748 5745 5739 5735 5734 5737
5843 5840 5836 5831 5827 5823 5819 5815 5808 5802 5798 5794 5791 5789 5786 5783 5780 5778 5777 5774 5772 5772 5771 5769 5767 5765 5762 5760 5758 5756 5754 5753 5752 5751 5750 5749 5749 5749 5747 5742 5736 5730 5731
5841 5839 5837 5833 5829 5824 5821 5817 5810 5804 5800 5796 5793 5789 5786 5783 5781 5779 5777 5775 5774 5773 5772 5769 5766 5764 5761 5758 5756 5754 5752 5752 5750 5749 5749 5747 5747 5747 5746 5744 5740 5731 5724
5839 5838 5837 5834 5830 5826 5823 5819 5813 5806 5802 5798 5793 5790 5787 5784 5781 5779 5776 5774 5774 5772 5770 5767 5765 5762 5759 5756 5754 5752 5751 5749 5748 5747 5746 5745 5745 5745 5744 5743 5741 5737 5729
5836 5835 5835 5834 5831 5828 5823 5818 5812 5806 5802 5798 5794 5791 5787 5784 5781 5777 5776 5774 5772 5770 5767 5765 5762 5759 5756 5754 5751 5750 5748 5746 5745 5744 5744 5742 5743 5741 5740 5740 5738 5734 5730
5836 5835 5833 5831 5828 5825 5821 5817 5812 5807 5802 5798 5794 5789 5786 5783 5779 5776 5774 5772 5769 5767 5765 5762 5759 5757 5754 5751 5749 5746 5745 5742 5740 5740 5739 5739 5739 5737 5735 5734 5732 5730 5728
5829 5828 5826 5824 5823 5821 5818 5814 5811 5806 5802 5797 5791 5787 5783 5780 5776 5773 5771 5769 5766 5763 5761 5759 5756 5753 5750 5748 5746 5743 5741 5739 5737 5736 5734 5734 5733 5731 5731 5730 5728 5726 5726
5820 5817 5815 5817 5816 5815 5813 5810 5807 5804 5799 5794 5788 5783 5779 5776 5773 5770 5768 5765 5762 5759 5757 5755 5752 5749 5747 5745 5742 5741 5738 5736 5734 5732 5730 5729 5727 5726 5725 5724 5723 5722 5719
5812 5811 5809 5809 5809 5808 5807 5805 5802 5799 5795 5789 5783 5779 5775 5772 5769 5766 5763 5761 5758 5756 5753 5750 5747 5745 5743 5740 5738 5736 5734 5731 5729 5727 5725 5724 5722 5721 5720 5719 5717 5715 5713
5806 5806 5805 5804 5802 5802 5801 5800 5797 5793 5790 5784 5778 5775 5771 5767 5764 5761 5758 5756 5753 5751 5748 5745 5741 5738 5736 5733 5732 5730 5729 5726 5723 5721 5719 5719 5716 5715 5714 5712 5710 5709 5706
5801 5800 5799 5798 5797 5797 5796 5793 5791 5788 5783 5777 5773 5769 5765 5762 5759 5756 5753 5750 5748 5746 5742 5739 5735 5732 5728 5727 5726 5724 5723 5721 5718 5715 5713 5713 5711 5709 5707 5706 5704 5702 5700
5797 5796 5795 5794 5793 5793 5791 5789 5786 5781 5776 5771 5767 5764 5761 5757 5754 5751 5747 5745 5743 5740 5736 5733 5730 5726 5723 5720 5719 5717 5717 5715 5712 5710 5707 5704 5702 5701 5699 5698 5696 5694 5691
5794 5793 5793 5791 5788 5786 5784 5781 5777 5773 5769 5765 5762 5760 5757 5752 5748 5744 5741 5740 5738 5735 5731 5728 5724 5720 5716 5714 5713 5711 5711 5708 5705 5702 5699 5697 5694 5693 5692 5690 5687 5684 5682
5788 5787 5787 5784 5780 5778 5777 5773 5769 5765 5761 5760 5758 5755 5752 5748 5743 5740 5737 5736 5733 5729 5726 5722 5719 5716 5712 5708 5707 5705 5705 5701 5698 5695 5692 5689 5686 5684 5683 5682 5679 5674 5672
5780 5779 5777 5773 5770 5770 5768 5764 5760 5756 5755 5754 5751 5748 5746 5743 5739 5736 5733 5730 5728 5724 5720 5716 5713 5710 5706 5702 5701 5699 5697 5694 5691 5688 5685 5681 5678 5677 5675 5674 5671 5668 5666
5770 5769 5766 5763 5762 5761 5758 5755 5751 5750 5749 5746 5743 5740 5738 5737 5734 5730 5726 5725 5722 5718 5714 5710 5706 5703 5700 5696 5694 5691 5688 5686 5684 5681 5678 5675 5672 5669 5667 5665 5663 5661 5659
5759 5758 5756 5753 5753 5752 5750 5746 5744 5744 5741 5737 5734 5731 5730 5727 5725 5722 5718 5716 5714 5712 5709 5705 5700 5696 5692 5688 5685 5683 5681 5678 5676 5673 5670 5667 5665 5662 5660 5657 5655 5652 5650
5747 5747 5745 5743 5741 5742 5741 5739 5738 5737 5733 5729 5725 5723 5720 5717 5714 5712 5710 5706 5704 5703 5701 5697 5693 5688 5684 5680 5677 5674 5672 5669 5667 5665 5662 5659 5657 5654 5652 5649 5646 5643 5641
5739 5737 5735 5733 5732 5732 5731 5730 5729 5728 5724 5721 5718 5715 5712 5708 5702 5698 5694 5693 5689 5688 5688 5687 5684 5680 5675 5669 5668 5666 5664 5662 5659 5656 5654 5651 5648 5645 5642 5640 5637 5634 5631
5730 5727 5725 5724 5723 5723 5721 5720 5720 5718 5715 5712 5710 5708 5705 5700 5696 5690 5683 5678 5678 5677 5676 5675 5673 5668 5665 5662 5660 5658 5656 5653 5651 5648 5645 5642 5639 5637 5633 5630 5627 5624 5621